Year,Month,Day,Hour,Minute,Value (Times are PST for temperature in C)
2008,09,16,00,00,14.40
2008,09,16,00,01,14.40
2008,09,16,00,02,14.50
2008,09,16,00,03,14.50
2008,09,16,00,04,14.40
2008,09,16,00,05,14.40
2008,09,16,00,06,14.40
2008,09,16,00,07,14.40
2008,09,16,00,08,14.40
2008,09,16,00,09,14.30
2008,09,16,00,10,14.30
2008,09,16,00,11,14.30
2008,09,16,00,12,14.30
2008,09,16,00,13,14.20
2008,09,16,00,14,14.20
2008,09,16,00,15,14.20
2008,09,16,00,16,14.20
2008,09,16,00,17,14.20
2008,09,16,00,18,14.30
2008,09,16,00,19,14.30
2008,09,16,00,20,14.30
2008,09,16,00,21,14.40
2008,09,16,00,22,14.40
2008,09,16,00,23,14.50
2008,09,16,00,24,14.50
2008,09,16,00,25,14.50
2008,09,16,00,26,14.50
2008,09,16,00,27,14.50
2008,09,16,00,28,14.40
2008,09,16,00,29,14.40
2008,09,16,00,30,14.40
2008,09,16,00,31,14.30
2008,09,16,00,32,14.30
2008,09,16,00,33,14.30
2008,09,16,00,34,14.30
2008,09,16,00,35,14.20
2008,09,16,00,36,14.20
2008,09,16,00,37,14.20
2008,09,16,00,38,14.20
2008,09,16,00,39,14.20
2008,09,16,00,40,14.20
2008,09,16,00,41,14.10
2008,09,16,00,42,14.10
2008,09,16,00,43,14.00
2008,09,16,00,44,13.90
2008,09,16,00,45,13.90
2008,09,16,00,46,13.80
2008,09,16,00,47,13.80
2008,09,16,00,48,13.70
2008,09,16,00,49,13.70
2008,09,16,00,50,13.60
2008,09,16,00,51,13.60
2008,09,16,00,52,13.60
2008,09,16,00,53,13.60
2008,09,16,00,54,13.50
2008,09,16,00,55,13.40
2008,09,16,00,56,13.40
2008,09,16,00,57,13.30
2008,09,16,00,58,13.30
2008,09,16,00,59,13.20
2008,09,16,01,00,13.20
2008,09,16,01,01,13.20
2008,09,16,01,02,13.10
2008,09,16,01,03,13.10
2008,09,16,01,04,13.20
2008,09,16,01,05,13.20
2008,09,16,01,06,13.20
2008,09,16,01,07,13.20
2008,09,16,01,08,13.20
2008,09,16,01,09,13.20
2008,09,16,01,10,13.10
2008,09,16,01,11,13.10
2008,09,16,01,12,13.10
2008,09,16,01,13,13.10
2008,09,16,01,14,13.10
2008,09,16,01,15,13.10
2008,09,16,01,16,13.10
2008,09,16,01,17,13.10
2008,09,16,01,18,13.10
2008,09,16,01,19,13.10
2008,09,16,01,20,13.00
2008,09,16,01,21,13.10
2008,09,16,01,22,13.10
2008,09,16,01,23,13.10
2008,09,16,01,24,13.10
2008,09,16,01,25,13.20
2008,09,16,01,26,13.30
2008,09,16,01,27,13.30
2008,09,16,01,28,13.30
2008,09,16,01,29,13.30
2008,09,16,01,30,13.30
2008,09,16,01,31,13.30
2008,09,16,01,32,13.30
2008,09,16,01,33,13.20
2008,09,16,01,34,13.20
2008,09,16,01,35,13.20
2008,09,16,01,36,13.20
2008,09,16,01,37,13.20
2008,09,16,01,38,13.10
2008,09,16,01,39,13.10
2008,09,16,01,40,13.10
2008,09,16,01,41,13.10
2008,09,16,01,42,13.00
2008,09,16,01,43,13.00
2008,09,16,01,44,13.00
2008,09,16,01,45,12.90
2008,09,16,01,46,12.90
2008,09,16,01,47,12.90
2008,09,16,01,48,12.90
2008,09,16,01,49,12.80
2008,09,16,01,50,12.80
2008,09,16,01,51,12.80
2008,09,16,01,52,12.80
2008,09,16,01,53,12.80
2008,09,16,01,54,12.70
2008,09,16,01,55,12.70
2008,09,16,01,56,12.70
2008,09,16,01,57,12.70
2008,09,16,01,58,12.70
2008,09,16,01,59,12.80
2008,09,16,02,00,12.80
2008,09,16,02,01,12.80
2008,09,16,02,02,12.80
2008,09,16,02,03,12.80
2008,09,16,02,04,12.80
2008,09,16,02,05,12.80
2008,09,16,02,06,12.80
2008,09,16,02,07,12.80
2008,09,16,02,08,12.80
2008,09,16,02,09,12.80
2008,09,16,02,10,12.70
2008,09,16,02,11,12.70
2008,09,16,02,12,12.70
2008,09,16,02,13,12.70
2008,09,16,02,14,12.70
2008,09,16,02,15,12.70
2008,09,16,02,16,12.70
2008,09,16,02,17,12.70
2008,09,16,02,18,12.70
2008,09,16,02,19,12.60
2008,09,16,02,20,12.60
2008,09,16,02,21,12.60
2008,09,16,02,22,12.50
2008,09,16,02,23,12.50
2008,09,16,02,24,12.50
2008,09,16,02,25,12.40
2008,09,16,02,26,12.40
2008,09,16,02,27,12.30
2008,09,16,02,28,12.30
2008,09,16,02,29,12.20
2008,09,16,02,30,12.20
2008,09,16,02,31,12.20
2008,09,16,02,32,12.20
2008,09,16,02,33,12.20
2008,09,16,02,34,12.20
2008,09,16,02,35,12.20
2008,09,16,02,36,12.20
2008,09,16,02,37,12.20
2008,09,16,02,38,12.20
2008,09,16,02,39,12.20
2008,09,16,02,40,12.30
2008,09,16,02,41,12.30
2008,09,16,02,42,12.30
2008,09,16,02,43,12.30
2008,09,16,02,44,12.30
2008,09,16,02,45,12.30
2008,09,16,02,46,12.30
2008,09,16,02,47,12.30
2008,09,16,02,48,12.30
2008,09,16,02,49,12.30
2008,09,16,02,50,12.30
2008,09,16,02,51,12.20
2008,09,16,02,52,12.20
2008,09,16,02,53,12.20
2008,09,16,02,54,12.20
2008,09,16,02,55,12.20
2008,09,16,02,56,12.20
2008,09,16,02,57,12.20
2008,09,16,02,58,12.20
2008,09,16,02,59,12.20
2008,09,16,03,00,12.20
2008,09,16,03,01,12.20
2008,09,16,03,02,12.30
2008,09,16,03,03,12.30
2008,09,16,03,04,12.30
2008,09,16,03,05,12.30
2008,09,16,03,06,12.30
2008,09,16,03,07,12.40
2008,09,16,03,08,12.40
2008,09,16,03,09,12.40
2008,09,16,03,10,12.50
2008,09,16,03,11,12.50
2008,09,16,03,12,12.60
2008,09,16,03,13,12.60
2008,09,16,03,14,12.60
2008,09,16,03,15,12.60
2008,09,16,03,16,12.60
2008,09,16,03,17,12.60
2008,09,16,03,18,12.50
2008,09,16,03,19,12.50
2008,09,16,03,20,12.40
2008,09,16,03,21,12.40
2008,09,16,03,22,12.40
2008,09,16,03,23,12.30
2008,09,16,03,24,12.30
2008,09,16,03,25,12.30
2008,09,16,03,26,12.30
2008,09,16,03,27,12.30
2008,09,16,03,28,12.30
2008,09,16,03,29,12.30
2008,09,16,03,30,12.30
2008,09,16,03,31,12.30
2008,09,16,03,32,12.30
2008,09,16,03,33,12.20
2008,09,16,03,34,12.20
2008,09,16,03,35,12.10
2008,09,16,03,36,12.10
2008,09,16,03,37,12.10
2008,09,16,03,38,12.00
2008,09,16,03,39,12.00
2008,09,16,03,40,11.90
2008,09,16,03,41,11.90
2008,09,16,03,42,11.80
2008,09,16,03,43,11.80
2008,09,16,03,44,11.70
2008,09,16,03,45,11.70
2008,09,16,03,46,11.60
2008,09,16,03,47,11.60
2008,09,16,03,48,11.60
2008,09,16,03,49,11.50
2008,09,16,03,50,11.50
2008,09,16,03,51,11.40
2008,09,16,03,52,11.40
2008,09,16,03,53,11.40
2008,09,16,03,54,11.40
2008,09,16,03,55,11.50
2008,09,16,03,56,11.50
2008,09,16,03,57,11.60
2008,09,16,03,58,11.60
2008,09,16,03,59,11.70
2008,09,16,04,00,11.70
2008,09,16,04,01,11.80
2008,09,16,04,02,11.90
2008,09,16,04,03,11.90
2008,09,16,04,04,11.90
2008,09,16,04,05,11.90
2008,09,16,04,06,11.90
2008,09,16,04,07,11.90
2008,09,16,04,08,11.80
2008,09,16,04,09,11.80
2008,09,16,04,10,11.80
2008,09,16,04,11,11.80
2008,09,16,04,12,11.80
2008,09,16,04,13,11.80
2008,09,16,04,14,11.80
2008,09,16,04,15,11.70
2008,09,16,04,16,11.70
2008,09,16,04,17,11.60
2008,09,16,04,18,11.60
2008,09,16,04,19,11.50
2008,09,16,04,20,11.50
2008,09,16,04,21,11.40
2008,09,16,04,22,11.40
2008,09,16,04,23,11.30
2008,09,16,04,24,11.30
2008,09,16,04,25,11.20
2008,09,16,04,26,11.20
2008,09,16,04,27,11.20
2008,09,16,04,28,11.20
2008,09,16,04,29,11.20
2008,09,16,04,30,11.20
2008,09,16,04,31,11.20
2008,09,16,04,32,11.30
2008,09,16,04,33,11.30
2008,09,16,04,34,11.40
2008,09,16,04,35,11.50
2008,09,16,04,36,11.50
2008,09,16,04,37,11.60
2008,09,16,04,38,11.60
2008,09,16,04,39,11.70
2008,09,16,04,40,11.70
2008,09,16,04,41,11.70
2008,09,16,04,42,11.80
2008,09,16,04,43,11.80
2008,09,16,04,44,11.80
2008,09,16,04,45,11.70
2008,09,16,04,46,11.70
2008,09,16,04,47,11.60
2008,09,16,04,48,11.50
2008,09,16,04,49,11.40
2008,09,16,04,50,11.30
2008,09,16,04,51,11.20
2008,09,16,04,52,11.10
2008,09,16,04,53,11.00
2008,09,16,04,54,10.90
2008,09,16,04,55,10.90
2008,09,16,04,56,10.80
2008,09,16,04,57,10.80
2008,09,16,04,58,10.80
2008,09,16,04,59,10.70
2008,09,16,05,00,10.70
2008,09,16,05,01,10.70
2008,09,16,05,02,10.60
2008,09,16,05,03,10.60
2008,09,16,05,04,10.50
2008,09,16,05,05,10.50
2008,09,16,05,06,10.50
2008,09,16,05,07,10.40
2008,09,16,05,08,10.40
2008,09,16,05,09,10.30
2008,09,16,05,10,10.30
2008,09,16,05,11,10.30
2008,09,16,05,12,10.30
2008,09,16,05,13,10.30
2008,09,16,05,14,10.30
2008,09,16,05,15,10.30
2008,09,16,05,16,10.30
2008,09,16,05,17,10.30
2008,09,16,05,18,10.30
2008,09,16,05,19,10.20
2008,09,16,05,20,10.20
2008,09,16,05,21,10.20
2008,09,16,05,22,10.20
2008,09,16,05,23,10.20
2008,09,16,05,24,10.20
2008,09,16,05,25,10.20
2008,09,16,05,26,10.20
2008,09,16,05,27,10.20
2008,09,16,05,28,10.20
2008,09,16,05,29,10.10
2008,09,16,05,30,10.10
2008,09,16,05,31,10.10
2008,09,16,05,32,10.10
2008,09,16,05,33,10.10
2008,09,16,05,34,10.10
2008,09,16,05,35,10.10
2008,09,16,05,36,10.10
2008,09,16,05,37,10.10
2008,09,16,05,38,10.10
2008,09,16,05,39,10.10
2008,09,16,05,40,10.10
2008,09,16,05,41,10.10
2008,09,16,05,42,10.10
2008,09,16,05,43,10.10
2008,09,16,05,44,10.10
2008,09,16,05,45,10.10
2008,09,16,05,46,10.10
2008,09,16,05,47,10.10
2008,09,16,05,48,10.10
2008,09,16,05,49,10.10
2008,09,16,05,50,10.10
2008,09,16,05,51,10.10
2008,09,16,05,52,10.10
2008,09,16,05,53,10.10
2008,09,16,05,54,10.00
2008,09,16,05,55,10.00
2008,09,16,05,56,10.00
2008,09,16,05,57,10.00
2008,09,16,05,58,10.00
2008,09,16,05,59,9.90
2008,09,16,06,00,9.90
2008,09,16,06,01,9.90
2008,09,16,06,02,9.90
2008,09,16,06,03,9.90
2008,09,16,06,04,9.90
2008,09,16,06,05,9.90
2008,09,16,06,06,9.90
2008,09,16,06,07,9.90
2008,09,16,06,08,9.90
2008,09,16,06,09,9.90
2008,09,16,06,10,10.00
2008,09,16,06,11,10.00
2008,09,16,06,12,10.00
2008,09,16,06,13,10.10
2008,09,16,06,14,10.10
2008,09,16,06,15,10.10
2008,09,16,06,16,10.10
2008,09,16,06,17,10.10
2008,09,16,06,18,10.10
2008,09,16,06,19,10.10
2008,09,16,06,20,10.10
2008,09,16,06,21,10.10
2008,09,16,06,22,10.10
2008,09,16,06,23,10.10
2008,09,16,06,24,10.10
2008,09,16,06,25,10.00
2008,09,16,06,26,10.00
2008,09,16,06,27,9.90
2008,09,16,06,28,9.90
2008,09,16,06,29,9.90
2008,09,16,06,30,9.90
2008,09,16,06,31,9.90
2008,09,16,06,32,10.00
2008,09,16,06,33,10.10
2008,09,16,06,34,10.20
2008,09,16,06,35,10.30
2008,09,16,06,36,10.30
2008,09,16,06,37,10.40
2008,09,16,06,38,10.40
2008,09,16,06,39,10.40
2008,09,16,06,40,10.50
2008,09,16,06,41,10.50
2008,09,16,06,42,10.50
2008,09,16,06,43,10.50
2008,09,16,06,44,10.40
2008,09,16,06,45,10.40
2008,09,16,06,46,10.40
2008,09,16,06,47,10.40
2008,09,16,06,48,10.40
2008,09,16,06,49,10.30
2008,09,16,06,50,10.30
2008,09,16,06,51,10.30
2008,09,16,06,52,10.30
2008,09,16,06,53,10.20
2008,09,16,06,54,10.20
2008,09,16,06,55,10.20
2008,09,16,06,56,10.20
2008,09,16,06,57,10.10
2008,09,16,06,58,10.10
2008,09,16,06,59,10.10
2008,09,16,07,00,10.00
2008,09,16,07,01,10.00
2008,09,16,07,02,10.00
2008,09,16,07,03,10.00
2008,09,16,07,04,10.00
2008,09,16,07,05,9.90
2008,09,16,07,06,9.90
2008,09,16,07,07,9.90
2008,09,16,07,08,9.90
2008,09,16,07,09,9.80
2008,09,16,07,10,9.80
2008,09,16,07,11,9.80
2008,09,16,07,12,9.80
2008,09,16,07,13,9.80
2008,09,16,07,14,9.80
2008,09,16,07,15,9.80
2008,09,16,07,16,9.80
2008,09,16,07,17,9.80
2008,09,16,07,18,9.80
2008,09,16,07,19,9.80
2008,09,16,07,20,9.80
2008,09,16,07,21,9.80
2008,09,16,07,22,9.90
2008,09,16,07,23,9.90
2008,09,16,07,24,9.90
2008,09,16,07,25,9.90
2008,09,16,07,26,10.00
2008,09,16,07,27,10.00
2008,09,16,07,28,10.10
2008,09,16,07,29,10.20
2008,09,16,07,30,10.20
2008,09,16,07,31,10.30
2008,09,16,07,32,10.40
2008,09,16,07,33,10.50
2008,09,16,07,34,10.60
2008,09,16,07,35,10.60
2008,09,16,07,36,10.70
2008,09,16,07,37,10.70
2008,09,16,07,38,10.80
2008,09,16,07,39,10.80
2008,09,16,07,40,10.90
2008,09,16,07,41,10.90
2008,09,16,07,42,10.90
2008,09,16,07,43,11.00
2008,09,16,07,44,11.00
2008,09,16,07,45,11.10
2008,09,16,07,46,11.10
2008,09,16,07,47,11.20
2008,09,16,07,48,11.20
2008,09,16,07,49,11.30
2008,09,16,07,50,11.30
2008,09,16,07,51,11.40
2008,09,16,07,52,11.50
2008,09,16,07,53,11.60
2008,09,16,07,54,11.70
2008,09,16,07,55,11.80
2008,09,16,07,56,11.80
2008,09,16,07,57,11.90
2008,09,16,07,58,12.00
2008,09,16,07,59,12.10
2008,09,16,08,00,12.20
2008,09,16,08,01,12.30
2008,09,16,08,02,12.30
2008,09,16,08,03,12.40
2008,09,16,08,04,12.50
2008,09,16,08,05,12.50
2008,09,16,08,06,12.60
2008,09,16,08,07,12.70
2008,09,16,08,08,12.80
2008,09,16,08,09,12.80
2008,09,16,08,10,12.90
2008,09,16,08,11,13.00
2008,09,16,08,12,13.10
2008,09,16,08,13,13.20
2008,09,16,08,14,13.30
2008,09,16,08,15,13.30
2008,09,16,08,16,13.40
2008,09,16,08,17,13.50
2008,09,16,08,18,13.60
2008,09,16,08,19,13.70
2008,09,16,08,20,13.70
2008,09,16,08,21,13.80
2008,09,16,08,22,13.80
2008,09,16,08,23,13.90
2008,09,16,08,24,13.90
2008,09,16,08,25,14.00
2008,09,16,08,26,14.10
2008,09,16,08,27,14.10
2008,09,16,08,28,14.20
2008,09,16,08,29,14.20
2008,09,16,08,30,14.30
2008,09,16,08,31,14.30
2008,09,16,08,32,14.40
2008,09,16,08,33,14.50
2008,09,16,08,34,14.50
2008,09,16,08,35,14.60
2008,09,16,08,36,14.60
2008,09,16,08,37,14.70
2008,09,16,08,38,14.70
2008,09,16,08,39,14.80
2008,09,16,08,40,14.90
2008,09,16,08,41,15.00
2008,09,16,08,42,15.00
2008,09,16,08,43,15.00
2008,09,16,08,44,15.00
2008,09,16,08,45,15.00
2008,09,16,08,46,15.10
2008,09,16,08,47,15.20
2008,09,16,08,48,15.30
2008,09,16,08,49,15.40
2008,09,16,08,50,15.50
2008,09,16,08,51,15.50
2008,09,16,08,52,15.60
2008,09,16,08,53,15.80
2008,09,16,08,54,15.90
2008,09,16,08,55,16.00
2008,09,16,08,56,16.10
2008,09,16,08,57,16.20
2008,09,16,08,58,16.30
2008,09,16,08,59,16.40
2008,09,16,09,00,16.50
2008,09,16,09,01,16.60
2008,09,16,09,02,16.70
2008,09,16,09,03,16.70
2008,09,16,09,04,16.80
2008,09,16,09,05,16.90
2008,09,16,09,06,17.00
2008,09,16,09,07,17.00
2008,09,16,09,08,17.10
2008,09,16,09,09,17.20
2008,09,16,09,10,17.20
2008,09,16,09,11,17.30
2008,09,16,09,12,17.30
2008,09,16,09,13,17.40
2008,09,16,09,14,17.40
2008,09,16,09,15,17.50
2008,09,16,09,16,17.50
2008,09,16,09,17,17.60
2008,09,16,09,18,17.60
2008,09,16,09,19,17.70
2008,09,16,09,20,17.70
2008,09,16,09,21,17.80
2008,09,16,09,22,17.90
2008,09,16,09,23,17.90
2008,09,16,09,24,18.00
2008,09,16,09,25,18.00
2008,09,16,09,26,18.00
2008,09,16,09,27,18.00
2008,09,16,09,28,18.00
2008,09,16,09,29,18.10
2008,09,16,09,30,18.10
2008,09,16,09,31,18.20
2008,09,16,09,32,18.20
2008,09,16,09,33,18.20
2008,09,16,09,34,18.20
2008,09,16,09,35,18.20
2008,09,16,09,36,18.20
2008,09,16,09,37,18.30
2008,09,16,09,38,18.30
2008,09,16,09,39,18.30
2008,09,16,09,40,18.30
2008,09,16,09,41,18.30
2008,09,16,09,42,18.30
2008,09,16,09,43,18.40
2008,09,16,09,44,18.40
2008,09,16,09,45,18.50
2008,09,16,09,46,18.50
2008,09,16,09,47,18.60
2008,09,16,09,48,18.60
2008,09,16,09,49,18.60
2008,09,16,09,50,18.60
2008,09,16,09,51,18.60
2008,09,16,09,52,18.60
2008,09,16,09,53,18.60
2008,09,16,09,54,18.60
2008,09,16,09,55,18.60
2008,09,16,09,56,18.70
2008,09,16,09,57,18.70
2008,09,16,09,58,18.70
2008,09,16,09,59,18.70
2008,09,16,10,00,18.70
2008,09,16,10,01,18.70
2008,09,16,10,02,18.60
2008,09,16,10,03,18.60
2008,09,16,10,04,18.60
2008,09,16,10,05,18.60
2008,09,16,10,06,18.60
2008,09,16,10,07,18.60
2008,09,16,10,08,18.60
2008,09,16,10,09,18.60
2008,09,16,10,10,18.60
2008,09,16,10,11,18.60
2008,09,16,10,12,18.70
2008,09,16,10,13,18.70
2008,09,16,10,14,18.70
2008,09,16,10,15,18.80
2008,09,16,10,16,18.80
2008,09,16,10,17,18.90
2008,09,16,10,18,18.90
2008,09,16,10,19,18.90
2008,09,16,10,20,18.90
2008,09,16,10,21,18.90
2008,09,16,10,22,18.90
2008,09,16,10,23,18.90
2008,09,16,10,24,19.00
2008,09,16,10,25,19.00
2008,09,16,10,26,19.10
2008,09,16,10,27,19.10
2008,09,16,10,28,19.10
2008,09,16,10,29,19.20
2008,09,16,10,30,19.30
2008,09,16,10,31,19.40
2008,09,16,10,32,19.50
2008,09,16,10,33,19.60
2008,09,16,10,34,19.70
2008,09,16,10,35,19.70
2008,09,16,10,36,19.70
2008,09,16,10,37,19.70
2008,09,16,10,38,19.80
2008,09,16,10,39,19.80
2008,09,16,10,40,19.80
2008,09,16,10,41,19.90
2008,09,16,10,42,19.90
2008,09,16,10,43,19.90
2008,09,16,10,44,19.90
2008,09,16,10,45,19.90
2008,09,16,10,46,19.90
2008,09,16,10,47,19.90
2008,09,16,10,48,19.90
2008,09,16,10,49,20.00
2008,09,16,10,50,20.00
2008,09,16,10,51,19.90
2008,09,16,10,52,19.90
2008,09,16,10,53,19.90
2008,09,16,10,54,19.90
2008,09,16,10,55,19.90
2008,09,16,10,56,20.00
2008,09,16,10,57,20.00
2008,09,16,10,58,20.00
2008,09,16,10,59,20.00
2008,09,16,11,00,20.00
2008,09,16,11,01,19.90
2008,09,16,11,02,19.90
2008,09,16,11,03,19.90
2008,09,16,11,04,19.90
2008,09,16,11,05,19.90
2008,09,16,11,06,19.80
2008,09,16,11,07,19.80
2008,09,16,11,08,19.90
2008,09,16,11,09,19.80
2008,09,16,11,10,19.90
2008,09,16,11,11,19.90
2008,09,16,11,12,19.90
2008,09,16,11,13,19.90
2008,09,16,11,14,19.90
2008,09,16,11,15,19.90
2008,09,16,11,16,19.90
2008,09,16,11,17,19.90
2008,09,16,11,18,20.00
2008,09,16,11,19,20.00
2008,09,16,11,20,20.00
2008,09,16,11,21,20.20
2008,09,16,11,22,20.20
2008,09,16,11,23,20.30
2008,09,16,11,24,20.30
2008,09,16,11,25,20.30
2008,09,16,11,26,20.30
2008,09,16,11,27,20.30
2008,09,16,11,28,20.30
2008,09,16,11,29,20.30
2008,09,16,11,30,20.30
2008,09,16,11,31,20.30
2008,09,16,11,32,20.30
2008,09,16,11,33,20.40
2008,09,16,11,34,20.40
2008,09,16,11,35,20.40
2008,09,16,11,36,20.30
2008,09,16,11,37,20.30
2008,09,16,11,38,20.30
2008,09,16,11,39,20.30
2008,09,16,11,40,20.40
2008,09,16,11,41,20.40
2008,09,16,11,42,20.50
2008,09,16,11,43,20.50
2008,09,16,11,44,20.60
2008,09,16,11,45,20.70
2008,09,16,11,46,20.80
2008,09,16,11,47,20.90
2008,09,16,11,48,20.80
2008,09,16,11,49,20.80
2008,09,16,11,50,20.80
2008,09,16,11,51,20.80
2008,09,16,11,52,20.80
2008,09,16,11,53,20.90
2008,09,16,11,54,20.90
2008,09,16,11,55,20.90
2008,09,16,11,56,20.90
2008,09,16,11,57,20.90
2008,09,16,11,58,20.90
2008,09,16,11,59,20.90
2008,09,16,12,00,21.00
2008,09,16,12,01,21.00
2008,09,16,12,02,21.10
2008,09,16,12,03,21.10
2008,09,16,12,04,21.10
2008,09,16,12,05,21.10
2008,09,16,12,06,21.20
2008,09,16,12,07,21.20
2008,09,16,12,08,21.20
2008,09,16,12,09,21.20
2008,09,16,12,10,21.20
2008,09,16,12,11,21.20
2008,09,16,12,12,21.20
2008,09,16,12,13,21.30
2008,09,16,12,14,21.40
2008,09,16,12,15,21.40
2008,09,16,12,16,21.40
2008,09,16,12,17,21.50
2008,09,16,12,18,21.70
2008,09,16,12,19,21.70
2008,09,16,12,20,21.80
2008,09,16,12,21,21.80
2008,09,16,12,22,21.70
2008,09,16,12,23,21.70
2008,09,16,12,24,21.70
2008,09,16,12,25,21.70
2008,09,16,12,26,21.70
2008,09,16,12,27,21.70
2008,09,16,12,28,21.80
2008,09,16,12,29,21.80
2008,09,16,12,30,21.90
2008,09,16,12,31,21.90
2008,09,16,12,32,21.90
2008,09,16,12,33,21.90
2008,09,16,12,34,21.90
2008,09,16,12,35,21.80
2008,09,16,12,36,21.80
2008,09,16,12,37,21.80
2008,09,16,12,38,21.80
2008,09,16,12,39,21.90
2008,09,16,12,40,22.00
2008,09,16,12,41,22.10
2008,09,16,12,42,22.20
2008,09,16,12,43,22.40
2008,09,16,12,44,22.50
2008,09,16,12,45,22.60
2008,09,16,12,46,22.70
2008,09,16,12,47,22.70
2008,09,16,12,48,22.70
2008,09,16,12,49,22.60
2008,09,16,12,50,22.60
2008,09,16,12,51,22.60
2008,09,16,12,52,22.50
2008,09,16,12,53,22.40
2008,09,16,12,54,22.50
2008,09,16,12,55,22.60
2008,09,16,12,56,22.60
2008,09,16,12,57,22.70
2008,09,16,12,58,22.80
2008,09,16,12,59,22.80
2008,09,16,13,00,22.80
2008,09,16,13,01,22.80
2008,09,16,13,02,23.00
2008,09,16,13,03,23.10
2008,09,16,13,04,23.00
2008,09,16,13,05,23.00
2008,09,16,13,06,23.00
2008,09,16,13,07,22.90
2008,09,16,13,08,22.90
2008,09,16,13,09,23.00
2008,09,16,13,10,23.10
2008,09,16,13,11,23.00
2008,09,16,13,12,22.90
2008,09,16,13,13,22.90
2008,09,16,13,14,23.00
2008,09,16,13,15,23.10
2008,09,16,13,16,23.20
2008,09,16,13,17,23.20
2008,09,16,13,18,23.30
2008,09,16,13,19,23.30
2008,09,16,13,20,23.30
2008,09,16,13,21,23.20
2008,09,16,13,22,23.10
2008,09,16,13,23,23.00
2008,09,16,13,24,22.90
2008,09,16,13,25,22.90
2008,09,16,13,26,22.90
2008,09,16,13,27,23.00
2008,09,16,13,28,23.00
2008,09,16,13,29,23.10
2008,09,16,13,30,23.20
2008,09,16,13,31,23.20
2008,09,16,13,32,23.30
2008,09,16,13,33,23.30
2008,09,16,13,34,23.20
2008,09,16,13,35,23.20
2008,09,16,13,36,23.20
2008,09,16,13,37,23.10
2008,09,16,13,38,23.10
2008,09,16,13,39,23.10
2008,09,16,13,40,23.20
2008,09,16,13,41,23.20
2008,09,16,13,42,23.20
2008,09,16,13,43,23.20
2008,09,16,13,44,23.20
2008,09,16,13,45,23.30
2008,09,16,13,46,23.30
2008,09,16,13,47,23.40
2008,09,16,13,48,23.40
2008,09,16,13,49,23.40
2008,09,16,13,50,23.50
2008,09,16,13,51,23.50
2008,09,16,13,52,23.40
2008,09,16,13,53,23.40
2008,09,16,13,54,23.50
2008,09,16,13,55,23.50
2008,09,16,13,56,23.60
2008,09,16,13,57,23.70
2008,09,16,13,58,23.80
2008,09,16,13,59,23.80
2008,09,16,14,00,23.90
2008,09,16,14,01,23.90
2008,09,16,14,02,23.80
2008,09,16,14,03,23.80
2008,09,16,14,04,23.80
2008,09,16,14,05,23.80
2008,09,16,14,06,23.80
2008,09,16,14,07,23.80
2008,09,16,14,08,23.70
2008,09,16,14,09,23.70
2008,09,16,14,10,23.70
2008,09,16,14,11,23.70
2008,09,16,14,12,23.70
2008,09,16,14,13,23.80
2008,09,16,14,14,23.80
2008,09,16,14,15,23.70
2008,09,16,14,16,23.80
2008,09,16,14,17,23.90
2008,09,16,14,18,23.90
2008,09,16,14,19,23.90
2008,09,16,14,20,23.90
2008,09,16,14,21,24.00
2008,09,16,14,22,24.00
2008,09,16,14,23,23.90
2008,09,16,14,24,23.90
2008,09,16,14,25,23.90
2008,09,16,14,26,24.00
2008,09,16,14,27,24.10
2008,09,16,14,28,24.10
2008,09,16,14,29,24.10
2008,09,16,14,30,24.20
2008,09,16,14,31,24.30
2008,09,16,14,32,24.30
2008,09,16,14,33,24.20
2008,09,16,14,34,24.10
2008,09,16,14,35,24.10
2008,09,16,14,36,24.10
2008,09,16,14,37,24.00
2008,09,16,14,38,24.00
2008,09,16,14,39,23.90
2008,09,16,14,40,23.80
2008,09,16,14,41,23.80
2008,09,16,14,42,23.80
2008,09,16,14,43,23.70
2008,09,16,14,44,23.80
2008,09,16,14,45,23.80
2008,09,16,14,46,23.90
2008,09,16,14,47,23.90
2008,09,16,14,48,24.00
2008,09,16,14,49,24.10
2008,09,16,14,50,24.10
2008,09,16,14,51,24.20
2008,09,16,14,52,24.20
2008,09,16,14,53,24.30
2008,09,16,14,54,24.40
2008,09,16,14,55,24.50
2008,09,16,14,56,24.60
2008,09,16,14,57,24.70
2008,09,16,14,58,24.80
2008,09,16,14,59,24.80
2008,09,16,15,00,24.80
2008,09,16,15,01,24.70
2008,09,16,15,02,24.60
2008,09,16,15,03,24.60
2008,09,16,15,04,24.60
2008,09,16,15,05,24.50
2008,09,16,15,06,24.50
2008,09,16,15,07,24.50
2008,09,16,15,08,24.60
2008,09,16,15,09,24.60
2008,09,16,15,10,24.70
2008,09,16,15,11,24.80
2008,09,16,15,12,24.80
2008,09,16,15,13,25.00
2008,09,16,15,14,25.00
2008,09,16,15,15,24.90
2008,09,16,15,16,24.80
2008,09,16,15,17,24.80
2008,09,16,15,18,24.90
2008,09,16,15,19,24.90
2008,09,16,15,20,25.00
2008,09,16,15,21,25.10
2008,09,16,15,22,25.30
2008,09,16,15,23,25.40
2008,09,16,15,24,25.40
2008,09,16,15,25,25.40
2008,09,16,15,26,25.40
2008,09,16,15,27,25.30
2008,09,16,15,28,25.10
2008,09,16,15,29,24.90
2008,09,16,15,30,24.80
2008,09,16,15,31,24.70
2008,09,16,15,32,24.60
2008,09,16,15,33,24.60
2008,09,16,15,34,24.60
2008,09,16,15,35,24.60
2008,09,16,15,36,24.60
2008,09,16,15,37,24.60
2008,09,16,15,38,24.60
2008,09,16,15,39,24.50
2008,09,16,15,40,24.50
2008,09,16,15,41,24.50
2008,09,16,15,42,24.60
2008,09,16,15,43,24.70
2008,09,16,15,44,24.70
2008,09,16,15,45,24.70
2008,09,16,15,46,24.70
2008,09,16,15,47,24.70
2008,09,16,15,48,24.70
2008,09,16,15,49,24.70
2008,09,16,15,50,24.80
2008,09,16,15,51,24.80
2008,09,16,15,52,24.90
2008,09,16,15,53,25.00
2008,09,16,15,54,25.00
2008,09,16,15,55,25.10
2008,09,16,15,56,25.10
2008,09,16,15,57,25.00
2008,09,16,15,58,24.90
2008,09,16,15,59,24.80
2008,09,16,16,00,24.80
2008,09,16,16,01,24.80
2008,09,16,16,02,24.90
2008,09,16,16,03,25.10
2008,09,16,16,04,25.10
2008,09,16,16,05,25.00
2008,09,16,16,06,25.00
2008,09,16,16,07,24.90
2008,09,16,16,08,24.80
2008,09,16,16,09,24.80
2008,09,16,16,10,24.80
2008,09,16,16,11,24.80
2008,09,16,16,12,24.80
2008,09,16,16,13,24.80
2008,09,16,16,14,24.90
2008,09,16,16,15,24.90
2008,09,16,16,16,25.00
2008,09,16,16,17,25.00
2008,09,16,16,18,25.10
2008,09,16,16,19,25.20
2008,09,16,16,20,25.30
2008,09,16,16,21,25.40
2008,09,16,16,22,25.50
2008,09,16,16,23,25.60
2008,09,16,16,24,25.60
2008,09,16,16,25,25.60
2008,09,16,16,26,25.70
2008,09,16,16,27,25.80
2008,09,16,16,28,25.90
2008,09,16,16,29,25.90
2008,09,16,16,30,26.00
2008,09,16,16,31,26.00
2008,09,16,16,32,26.10
2008,09,16,16,33,26.10
2008,09,16,16,34,26.10
2008,09,16,16,35,26.00
2008,09,16,16,36,25.90
2008,09,16,16,37,25.80
2008,09,16,16,38,25.80
2008,09,16,16,39,25.70
2008,09,16,16,40,25.60
2008,09,16,16,41,25.60
2008,09,16,16,42,25.60
2008,09,16,16,43,25.60
2008,09,16,16,44,25.70
2008,09,16,16,45,25.80
2008,09,16,16,46,25.80
2008,09,16,16,47,25.80
2008,09,16,16,48,25.80
2008,09,16,16,49,25.80
2008,09,16,16,50,25.70
2008,09,16,16,51,25.70
2008,09,16,16,52,25.70
2008,09,16,16,53,25.60
2008,09,16,16,54,25.50
2008,09,16,16,55,25.40
2008,09,16,16,56,25.40
2008,09,16,16,57,25.40
2008,09,16,16,58,25.30
2008,09,16,16,59,25.30
2008,09,16,17,00,25.30
2008,09,16,17,01,25.30
2008,09,16,17,02,25.40
2008,09,16,17,03,25.40
2008,09,16,17,04,25.40
2008,09,16,17,05,25.50
2008,09,16,17,06,25.50
2008,09,16,17,07,25.60
2008,09,16,17,08,25.60
2008,09,16,17,09,25.70
2008,09,16,17,10,25.70
2008,09,16,17,11,25.70
2008,09,16,17,12,25.80
2008,09,16,17,13,25.80
2008,09,16,17,14,25.80
2008,09,16,17,15,25.80
2008,09,16,17,16,25.70
2008,09,16,17,17,25.70
2008,09,16,17,18,25.70
2008,09,16,17,19,25.60
2008,09,16,17,20,25.50
2008,09,16,17,21,25.40